ONEWEB-0252, 48970

Orbit data source: Space-Track

ONEWEB-0252, 48970 is a payload satellite owned by One Web (NAA) (UK) in LEO that was launched on Thu, 01 Jul 2021 UTC via a SOYUZ-2-1B launch vehicle from the Vostochny Cosmodrome (VOSTO). Payload-class satellites include a variety of spacecraft equipped with specific instruments for various scientific and technological missions. These include communications satellites like Starlink; space stations such as the ISS; scientific satellites like the Hubble; Earth observation satellites from companies like Planet Labs, Umbra, and HawkEye 360; GPS; miniature CubeSats for education and research; and military/defense satellites.

Loading next visibility...
Identifier
48970, 2021-060D
Orbit
LEO
Country
Flag of UKUK
Related business
Manufacturer
One Web
Mission
Operational Commercial Communications
Bus & Motor
ARROW, Unknown motor
Mass
148 kg wet, ~140 kg dry
Launch date (UTC)
2021-07-01 (4 years ago)
Launch vehicle
SOYUZ-2-1B
Launch site
Vostochny Cosmodrome (VOSTO)
Object type
Payload
Rocket body
Debris
Shape & HBR
Trap Box + 2 Pan, 6.7 m
Radar Cross Section
3.464 m², Large (>1 m²)

Expand to show TLE details & history
Last TLE update: 10 hours ago

TLE from 10 hours ago
0 ONEWEB-0252
1 48970U 21060D   25349.77909543  .00000048  00000-0  93056-4 0  9993
2 48970  87.9046 265.2920 0001926  77.8462 282.2884 13.16594277215526
Epoch: 2025-12-15T18:41Z
TLE epoch observation values (Epoch: 2025-12-15T18:41:53.845Z)
Latitude
-0.00006°
Longitude
-99.85512°
Altitude
1,200.343 km
Speed
7.254 km/s
True Right ascension
17h 41m 10s
True Declination
0° 00' 00"
Sunlit
Object was in daylight at epoch
Visualization orbit readout
Latitude
Unknown
Longitude
Unknown
Altitude
Unknown
Speed
Unknown
Apparent Right ascension
Unknown
Apparent Declination
Unknown
Sunlit
N/A
Visualization observer readout
Local Sidereal Time
03:06:50
Azimuth
Unknown
Elevation
Unknown
Doppler factor
Unknown
Orbital elements
Apogee altitude
1,196.326 km
Perigee altitude
1,193.408 km
Semi-major axis
7,573.004 km
Eccentricity
0.00019
Inclination
87.9046°
RAAN
265.292°
Arg. of periapsis
77.8462°
True anomaly
282.26683°
Mean anomaly
282.2884°
Eccentric anomaly
282.27762°
Mean motion
3.29337 °/min
Orbital period
109.31 mins
BSTAR
0.000093056
Loading maneuver chart data...
Computing Atmospheric mass density...
Loading historical data...
Loading historical data...
Loading historical data...
Loading historical data...
Loading historical data...
Loading historical data...
Loading historical data...

Documentation

Showing up to 5 results
|